Regional Weather Roundup
Issued by NWS Goodland, KS

Home | Current Version | Previous Version | Graphics & Text | Print | Product List | Glossary On
Versions: 1 2 3 4 5 6 7 8 9 10 11 12 13 14 15 16 17 18 19 20 21 22 23 24 25 26 27 28 29 30 31 32 33 34 35 36 37 38 39 40 41 42 43 44 45 46 47 48 49 50
000
ASUS43 KGLD 222208
RWRGLD

GOODLAND FORECAST AREA HOURLY WEATHER ROUNDUP
NATIONAL WEATHER SERVICE GOODLAND KS
400 PM MDT SUN OCT 22 2017

...OFFICIAL OBSERVATIONS...

CITY           SKY/WX    TMP DP  RH WIND       PRES   REMARKS
GOODLAND KS    CLOUDY    69  21  16 SW12      30.07R
HILL CITY KS   SUNNY     71  20  14 SW14      30.05F
IMPERIAL NEB   SUNNY     72  25  17 W12G25    30.01F
MCCOOK NEB     SUNNY     72  24  16 SW14      30.01F
AKRON CO       SUNNY     69  24  18 W13       30.07F
BURLINGTON CO  CLOUDY    68  20  16 SW16      30.10R
LIMON CO       SUNNY     70  26  19 W12       30.11S
$$

...UNOFFICIAL OBSERVATIONS...

CITY           SKY/WX    TMP DP  RH WIND       PRES   REMARKS
COLBY KS       SUNNY     70  30  23 SW13G23   30.07S
LENORA KS        N/A     71  32  23 W7          N/A
NORTON KS      SUNNY     70  10  10 SW12      30.02
SHARON SPRINGS   N/A     67  22  18 SW10G17     N/A
TRENTON NEB      N/A     72  32  23 W5G12       N/A
KIT CARSON CO    N/A     69  26  20 MISG        N/A
YUMA CO        FAIR      68   7   9 W16       30.06S
$$



USA.gov is the U.S. government's official web portal to all federal, state and local government web resources and services.